contact:dominique.lefevre@mio.osupytheas.fr, maurice.libes@osupytheas.fr, didier.mallarino@osupytheas.fr
Project:EMSO http://www.emso-fr.org/EMSO-France
Depth: 2436.0 m
Title:EMSO Ligure Ouest : Data MII capteur AQUADOPP
Date,Latitude,Longitude,X_East,Y_North,Z_Up,Amplitude_X,Amplitude_Y,Amplitude_Z,Batterie,SoundSpeed,Heading,Pitch,Roll,Pressure,TIS,Speed,Direction
, degrees North, degrees East, m.s-1, m.s-1,m.s-1, 1, 1, 1, Volt, m.s-1, degree, degree, degree, dbar, degree_C, m.s-1, degree
2022-11-21T00:04:03,42.805,6.029,0.021,-0.037,-0.022,99.0,99.0,99.0,13.4,1505.2,329.6,-0.8,1.8,2471.06,13.28,0.042,150.4
2022-11-21T00:07:03,42.805,6.029,0.023,-0.01,0.044,99.0,99.0,99.0,13.4,1505.2,328.7,-0.8,1.8,2471.083,13.28,0.025,113.5
2022-11-21T00:10:03,42.805,6.029,0.007,-0.036,-0.005,99.0,99.0,99.0,13.3,1505.2,329.9,-0.8,1.8,2471.075,13.28,0.036,169.0
2022-11-21T00:13:03,42.805,6.029,0.034,-0.009,0.034,98.0,101.0,99.0,13.3,1505.2,322.8,-0.8,1.9,2471.085,13.28,0.035,104.8
2022-11-21T00:16:03,42.805,6.029,0.0,-0.017,-0.012,98.0,99.0,99.0,13.4,1505.2,317.9,-0.7,1.8,2471.042,13.28,0.017,180.0
2022-11-21T00:19:03,42.805,6.029,0.016,-0.016,0.025,98.0,100.0,99.0,13.3,1505.2,329.3,-0.8,1.8,2471.055,13.28,0.022,135.0
2022-11-21T00:22:03,42.805,6.029,0.016,-0.025,0.016,101.0,98.0,100.0,13.4,1505.2,329.6,-0.8,1.8,2470.993,13.28,0.029,147.4
2022-11-21T00:25:03,42.805,6.029,-0.031,-0.01,-0.004,97.0,100.0,99.0,13.3,1505.2,335.8,-0.8,1.8,2471.022,13.28,0.032,252.1
2022-11-21T00:28:03,42.805,6.029,-0.003,-0.014,0.018,100.0,100.0,100.0,13.3,1505.2,325.4,-0.8,1.8,2471.05,13.29,0.014,192.1
2022-11-21T00:31:03,42.805,6.029,0.011,-0.022,-0.003,99.0,100.0,99.0,13.4,1505.2,321.3,-0.8,1.8,2471.033,13.29,0.024,153.4
2022-11-21T00:34:03,42.805,6.029,0.009,0.001,0.043,100.0,101.0,97.0,13.3,1505.2,323.1,-0.7,1.8,2471.088,13.29,0.009,83.7
2022-11-21T00:37:03,42.805,6.029,-0.011,-0.03,-0.009,101.0,100.0,98.0,13.4,1505.2,330.5,-0.7,1.8,2471.032,13.29,0.031,200.1
2022-11-21T00:40:03,42.805,6.029,0.037,-0.03,-0.011,99.0,100.0,98.0,13.4,1505.2,331.3,-0.7,1.8,2471.03,13.29,0.047,129.0
2022-11-21T00:43:03,42.805,6.029,0.009,-0.019,0.021,100.0,101.0,98.0,13.4,1505.2,320.1,-0.8,1.8,2471.025,13.29,0.021,154.7
2022-11-21T00:46:03,42.805,6.029,0.014,-0.025,-0.006,99.0,101.0,99.0,13.4,1505.2,322.1,-0.8,1.8,2471.067,13.28,0.028,150.7
2022-11-21T00:49:03,42.805,6.029,0.039,0.011,0.059,99.0,100.0,99.0,13.3,1505.2,320.2,-0.7,1.8,2471.046,13.28,0.04,74.3
2022-11-21T00:52:03,42.805,6.029,0.025,0.005,0.057,99.0,99.0,99.0,13.4,1505.2,317.6,-0.7,1.8,2471.039,13.28,0.025,78.7
2022-11-21T00:55:03,42.805,6.029,0.018,-0.027,0.012,99.0,99.0,99.0,13.4,1505.2,335.1,-0.8,1.8,2471.049,13.28,0.032,146.3
2022-11-21T00:58:03,42.805,6.029,0.038,-0.072,-0.029,100.0,99.0,99.0,13.3,1505.2,329.9,-0.7,1.8,2471.039,13.28,0.081,152.2
2022-11-21T01:04:03,42.805,6.029,0.008,-0.014,0.045,101.0,101.0,100.0,13.4,1505.2,322.1,-0.8,1.8,2471.076,13.28,0.016,150.3
2022-11-21T01:07:03,42.805,6.029,0.019,-0.042,-0.021,100.0,100.0,99.0,13.4,1505.2,329.0,-0.8,1.8,2471.08,13.28,0.046,155.7
2022-11-21T01:10:03,42.805,6.029,-0.007,-0.021,-0.004,100.0,100.0,99.0,13.3,1505.2,319.4,-0.7,1.8,2471.073,13.28,0.022,198.4
2022-11-21T01:13:03,42.805,6.029,0.034,-0.039,-0.024,100.0,101.0,98.0,13.3,1505.2,322.2,-0.8,1.8,2471.066,13.28,0.051,138.9
2022-11-21T01:16:03,42.805,6.029,0.032,-0.022,0.003,99.0,101.0,99.0,13.4,1505.2,319.3,-0.8,1.8,2471.075,13.28,0.038,124.5
2022-11-21T01:19:03,42.805,6.029,0.026,-0.025,-0.009,99.0,101.0,99.0,13.4,1505.2,319.5,-0.8,1.8,2471.076,13.28,0.036,133.9
2022-11-21T01:22:03,42.805,6.029,0.032,-0.021,0.015,99.0,101.0,99.0,13.3,1505.2,321.8,-0.8,1.8,2471.071,13.28,0.038,123.3
2022-11-21T01:25:03,42.805,6.029,0.002,-0.033,-0.031,100.0,101.0,98.0,13.3,1505.2,325.5,-0.8,1.8,2471.062,13.28,0.033,176.5
2022-11-21T01:28:03,42.805,6.029,0.02,-0.023,0.019,99.0,100.0,100.0,13.3,1505.2,317.9,-0.8,1.8,2471.075,13.28,0.03,139.0
2022-11-21T01:31:03,42.805,6.029,0.045,-0.019,0.041,99.0,100.0,99.0,13.4,1505.2,325.0,-0.8,1.8,2471.075,13.28,0.048,112.9
2022-11-21T01:34:03,42.805,6.029,0.015,-0.025,0.018,98.0,101.0,99.0,13.4,1505.2,324.0,-0.7,1.9,2471.069,13.28,0.029,149.0
2022-11-21T01:37:03,42.805,6.029,0.021,-0.024,0.006,99.0,101.0,100.0,13.4,1505.2,326.9,-0.8,1.8,2471.079,13.28,0.031,138.8
2022-11-21T01:40:03,42.805,6.029,0.026,-0.03,0.036,99.0,100.0,99.0,13.3,1505.2,319.0,-0.7,1.8,2471.056,13.28,0.039,139.1
2022-11-21T01:43:03,42.805,6.029,-0.013,-0.027,-0.023,99.0,100.0,99.0,13.4,1505.2,322.3,-0.8,1.8,2471.068,13.28,0.029,205.7
2022-11-21T01:46:03,42.805,6.029,0.016,-0.038,-0.007,99.0,100.0,99.0,13.3,1505.2,321.6,-0.7,1.8,2471.083,13.28,0.041,157.2
2022-11-21T01:49:03,42.805,6.029,0.012,-0.023,0.015,99.0,100.0,99.0,13.4,1505.2,335.3,-0.8,1.8,2471.042,13.29,0.025,152.4
2022-11-21T01:52:03,42.805,6.029,-0.003,-0.051,-0.011,97.0,100.0,100.0,13.4,1505.2,333.4,-0.8,1.8,2471.101,13.29,0.051,183.4
2022-11-21T01:55:03,42.805,6.029,0.001,-0.035,-0.005,97.0,99.0,101.0,13.4,1505.2,327.7,-0.8,1.8,2471.099,13.29,0.035,178.4
2022-11-21T01:58:03,42.805,6.029,-0.014,-0.021,0.0,99.0,99.0,99.0,13.4,1505.2,320.8,-0.8,1.8,2471.074,13.29,0.025,213.7
2022-11-21T02:04:02,42.805,6.029,0.021,-0.044,-0.023,99.0,100.0,99.0,13.3,1505.2,322.2,-0.7,1.8,2471.106,13.28,0.048,154.5
2022-11-21T02:07:03,42.805,6.029,0.048,-0.047,-0.031,99.0,100.0,99.0,13.3,1505.2,317.2,-0.8,1.8,2471.151,13.28,0.067,134.4
2022-11-21T02:10:03,42.805,6.029,0.018,-0.044,0.026,99.0,100.0,99.0,13.4,1505.2,326.3,-0.8,1.8,2471.158,13.28,0.047,157.8
2022-11-21T02:13:03,42.805,6.029,-0.004,-0.019,0.012,98.0,99.0,99.0,13.4,1505.2,328.2,-0.7,1.8,2471.094,13.28,0.019,191.9
2022-11-21T02:16:03,42.805,6.029,-0.021,0.002,0.045,100.0,99.0,99.0,13.4,1505.2,320.0,-0.8,1.8,2471.098,13.28,0.021,275.4
2022-11-21T02:19:03,42.805,6.029,0.026,-0.046,-0.012,99.0,99.0,99.0,13.4,1505.2,331.0,-0.8,1.8,2471.086,13.28,0.052,150.5
2022-11-21T02:22:03,42.805,6.029,0.028,-0.036,-0.002,99.0,100.0,99.0,13.3,1505.2,329.0,-0.8,1.8,2471.101,13.29,0.045,142.1
2022-11-21T02:25:03,42.805,6.029,0.035,-0.024,0.027,99.0,99.0,99.0,13.4,1505.2,322.8,-0.7,1.9,2471.109,13.28,0.042,124.4
2022-11-21T02:28:03,42.805,6.029,0.026,-0.056,0.005,100.0,99.0,98.0,13.3,1505.2,323.1,-0.7,1.8,2471.079,13.29,0.061,155.1
2022-11-21T02:31:03,42.805,6.029,0.018,-0.015,0.031,99.0,99.0,99.0,13.4,1505.2,321.5,-0.8,1.8,2471.068,13.29,0.023,129.8
2022-11-21T02:34:03,42.805,6.029,0.012,-0.036,-0.014,97.0,99.0,100.0,13.4,1505.2,331.1,-0.7,1.8,2471.125,13.29,0.037,161.6
2022-11-21T02:37:03,42.805,6.029,0.009,-0.026,0.0,100.0,100.0,99.0,13.4,1505.2,329.0,-0.7,1.8,2471.061,13.29,0.027,160.9
2022-11-21T02:40:03,42.805,6.029,0.017,-0.031,0.011,99.0,100.0,99.0,13.3,1505.2,322.1,-0.8,1.8,2471.097,13.29,0.035,151.3
2022-11-21T02:43:03,42.805,6.029,0.025,-0.033,0.005,98.0,100.0,99.0,13.4,1505.2,333.0,-0.8,1.8,2471.11,13.29,0.041,142.8
2022-11-21T02:46:03,42.805,6.029,0.016,-0.026,0.013,100.0,100.0,98.0,13.3,1505.2,318.8,-0.8,1.8,2471.119,13.29,0.03,148.4
2022-11-21T02:49:03,42.805,6.029,0.022,-0.04,0.011,99.0,98.0,101.0,13.4,1505.2,328.0,-0.8,1.8,2471.104,13.29,0.045,151.2
2022-11-21T02:52:03,42.805,6.029,-0.004,-0.011,0.028,101.0,98.0,98.0,13.4,1505.2,321.3,-0.8,1.8,2471.118,13.29,0.011,200.0
2022-11-21T02:55:03,42.805,6.029,0.003,-0.023,0.034,99.0,99.0,99.0,13.4,1505.2,321.6,-0.8,1.8,2471.119,13.29,0.023,172.6
2022-11-21T02:58:03,42.805,6.029,-0.025,-0.025,-0.033,99.0,99.0,99.0,13.3,1505.2,322.7,-0.8,1.8,2471.079,13.29,0.035,225.0
2022-11-21T03:04:03,42.805,6.029,-0.001,-0.026,0.038,101.0,98.0,99.0,13.3,1505.2,328.5,-0.8,1.8,2471.127,13.28,0.026,182.2
2022-11-21T03:07:03,42.805,6.029,0.006,-0.026,-0.002,99.0,99.0,99.0,13.4,1505.2,330.2,-0.8,1.8,2471.179,13.28,0.026,167.0
2022-11-21T03:10:03,42.805,6.029,0.016,-0.016,0.033,99.0,99.0,99.0,13.3,1505.2,323.3,-0.8,1.8,2471.121,13.28,0.022,135.0
2022-11-21T03:13:03,42.805,6.029,0.012,-0.026,-0.011,98.0,100.0,99.0,13.4,1505.2,322.9,-0.8,1.8,2471.152,13.28,0.028,155.2
2022-11-21T03:16:03,42.805,6.029,-0.006,-0.027,0.005,100.0,99.0,97.0,13.4,1505.2,323.2,-0.8,1.8,2471.171,13.28,0.027,192.5
2022-11-21T03:19:03,42.805,6.029,0.001,-0.045,-0.003,100.0,100.0,98.0,13.4,1505.2,321.1,-0.7,1.8,2471.142,13.28,0.045,178.7
2022-11-21T03:22:03,42.805,6.029,0.021,-0.039,-0.003,99.0,99.0,99.0,13.3,1505.2,316.9,-0.7,1.8,2471.12,13.28,0.044,151.7
2022-11-21T03:25:03,42.805,6.029,0.001,-0.02,0.07,99.0,99.0,99.0,13.3,1505.2,331.7,-0.8,1.8,2471.169,13.29,0.02,177.1
2022-11-21T03:28:03,42.805,6.029,0.029,-0.073,-0.067,99.0,99.0,99.0,13.4,1505.2,323.7,-0.7,1.8,2471.178,13.28,0.078,158.3
2022-11-21T03:31:03,42.805,6.029,0.022,-0.039,0.021,99.0,99.0,99.0,13.3,1505.2,325.6,-0.8,1.8,2471.132,13.29,0.044,150.6
2022-11-21T03:34:03,42.805,6.029,0.028,-0.046,0.02,99.0,99.0,99.0,13.3,1505.2,327.8,-0.7,1.8,2471.096,13.29,0.053,148.7
2022-11-21T03:37:03,42.805,6.029,0.021,-0.04,0.001,99.0,98.0,99.0,13.4,1505.2,319.8,-0.8,1.8,2471.148,13.29,0.045,152.3
2022-11-21T03:40:03,42.805,6.029,0.008,-0.038,-0.032,99.0,100.0,99.0,13.4,1505.2,318.8,-0.7,1.8,2471.114,13.29,0.038,168.1
2022-11-21T03:43:03,42.805,6.029,0.005,-0.023,-0.009,98.0,98.0,100.0,13.3,1505.2,334.1,-0.7,1.8,2471.162,13.29,0.023,167.7
2022-11-21T03:46:03,42.805,6.029,0.021,-0.046,-0.014,100.0,99.0,98.0,13.4,1505.2,322.3,-0.7,1.8,2471.156,13.29,0.05,155.5
2022-11-21T03:49:03,42.805,6.029,0.001,-0.01,0.038,98.0,99.0,100.0,13.4,1505.2,327.8,-0.8,1.8,2471.17,13.29,0.01,174.3
2022-11-21T03:52:03,42.805,6.029,0.016,-0.052,-0.009,98.0,99.0,99.0,13.4,1505.2,331.0,-0.7,1.9,2471.12,13.29,0.054,162.9
2022-11-21T03:55:03,42.805,6.029,-0.002,-0.038,0.022,97.0,100.0,99.0,13.4,1505.2,321.8,-0.8,1.8,2471.152,13.29,0.038,183.0
2022-11-21T03:58:03,42.805,6.029,0.02,-0.035,-0.008,101.0,100.0,98.0,13.4,1505.2,324.0,-0.7,1.8,2471.162,13.29,0.04,150.3
2022-11-21T05:04:02,42.805,6.029,0.031,-0.036,0.018,98.0,100.0,100.0,13.4,1505.1,319.5,-0.8,1.8,2471.677,13.27,0.047,139.3
2022-11-21T05:07:03,42.805,6.029,0.022,-0.023,0.04,98.0,100.0,99.0,13.4,1505.2,328.2,-0.8,1.8,2471.56,13.28,0.031,136.3
2022-11-21T05:10:03,42.805,6.029,0.0,-0.016,-0.018,99.0,100.0,99.0,13.4,1505.2,322.8,-0.8,1.8,2471.508,13.28,0.016,180.0
2022-11-21T05:13:03,42.805,6.029,0.033,-0.042,-0.007,98.0,100.0,99.0,13.3,1505.2,327.6,-0.7,1.8,2471.432,13.28,0.053,141.8
2022-11-21T05:16:03,42.805,6.029,0.0,-0.038,-0.02,100.0,99.0,99.0,13.3,1505.2,322.7,-0.8,1.8,2471.331,13.28,0.038,180.0
2022-11-21T05:19:03,42.805,6.029,-0.001,-0.026,0.026,99.0,98.0,100.0,13.3,1505.2,326.7,-0.8,1.8,2471.294,13.28,0.026,182.2
2022-11-21T05:22:03,42.805,6.029,0.007,-0.02,0.014,99.0,100.0,99.0,13.4,1505.2,322.2,-0.8,1.8,2471.253,13.28,0.021,160.7
2022-11-21T05:25:03,42.805,6.029,0.008,-0.034,-0.014,98.0,99.0,99.0,13.4,1505.2,317.7,-0.7,1.8,2471.261,13.28,0.034,166.8
2022-11-21T05:28:03,42.805,6.029,0.013,-0.018,0.066,98.0,99.0,99.0,13.3,1505.2,329.2,-0.7,1.9,2471.241,13.29,0.022,144.2
2022-11-21T05:31:03,42.805,6.029,-0.005,-0.048,-0.034,98.0,99.0,100.0,13.4,1505.2,326.3,-0.8,1.8,2471.21,13.28,0.048,185.9
2022-11-21T05:34:03,42.805,6.029,0.01,-0.06,-0.06,99.0,99.0,99.0,13.3,1505.2,326.0,-0.8,1.8,2471.198,13.28,0.06,170.5
2022-11-21T05:37:03,42.805,6.029,0.006,-0.03,-0.027,99.0,100.0,99.0,13.3,1505.2,318.2,-0.8,1.8,2471.202,13.28,0.03,168.7
2022-11-21T05:40:03,42.805,6.029,0.011,-0.008,0.04,99.0,99.0,99.0,13.4,1505.2,324.7,-0.8,1.8,2471.201,13.29,0.013,126.0
2022-11-21T05:43:03,42.805,6.029,0.027,-0.054,-0.032,99.0,99.0,99.0,13.4,1505.2,331.3,-0.7,1.8,2471.172,13.29,0.06,153.4
2022-11-21T05:46:03,42.805,6.029,0.011,-0.039,0.016,98.0,100.0,99.0,13.4,1505.2,331.0,-0.8,1.8,2471.191,13.29,0.04,164.3
2022-11-21T05:49:03,42.805,6.029,-0.028,-0.036,-0.02,98.0,99.0,99.0,13.4,1505.2,328.7,-0.7,1.8,2471.149,13.29,0.045,217.9
2022-11-21T05:52:03,42.805,6.029,0.026,-0.029,0.012,98.0,100.0,98.0,13.4,1505.2,321.3,-0.7,1.9,2471.22,13.29,0.038,138.1
2022-11-21T05:55:03,42.805,6.029,0.01,-0.034,0.008,100.0,99.0,99.0,13.3,1505.2,321.6,-0.8,1.8,2471.183,13.29,0.035,163.6
2022-11-21T05:58:03,42.805,6.029,-0.007,-0.015,0.033,99.0,99.0,98.0,13.4,1505.2,319.4,-0.7,1.9,2471.181,13.29,0.016,205.0
2022-11-21T06:04:03,42.805,6.029,-0.006,-0.03,0.027,98.0,100.0,99.0,13.4,1505.2,319.6,-0.8,1.8,2471.194,13.28,0.03,191.3
2022-11-21T06:07:03,42.805,6.029,0.011,-0.042,-0.004,99.0,99.0,98.0,13.4,1505.2,331.8,-0.8,1.8,2471.263,13.28,0.043,165.3
2022-11-21T06:10:03,42.805,6.029,-0.01,-0.016,-0.003,98.0,100.0,99.0,13.3,1505.2,333.4,-0.8,1.8,2471.225,13.28,0.018,212.0
2022-11-21T06:13:03,42.805,6.029,0.018,-0.036,-0.006,98.0,101.0,98.0,13.4,1505.2,335.8,-0.8,1.8,2471.219,13.28,0.04,153.4
2022-11-21T06:16:03,42.805,6.029,-0.025,-0.03,-0.02,99.0,98.0,99.0,13.3,1505.2,322.8,-0.8,1.8,2471.183,13.29,0.039,219.8
2022-11-21T06:19:03,42.805,6.029,0.05,-0.076,-0.062,99.0,100.0,98.0,13.4,1505.2,317.4,-0.8,1.8,2471.221,13.29,0.09,146.7
2022-11-21T06:22:03,42.805,6.029,0.002,-0.032,0.027,98.0,100.0,100.0,13.4,1505.2,330.2,-0.8,1.8,2471.213,13.29,0.032,176.4
2022-11-21T06:25:03,42.805,6.029,-0.002,-0.01,0.036,99.0,99.0,99.0,13.4,1505.2,320.9,-0.8,1.8,2471.201,13.29,0.01,191.3
2022-11-21T06:28:03,42.805,6.029,-0.02,-0.022,-0.004,98.0,100.0,98.0,13.4,1505.2,336.1,-0.8,1.8,2471.173,13.29,0.029,222.3
2022-11-21T06:31:03,42.805,6.029,-0.032,-0.018,-0.012,99.0,99.0,99.0,13.3,1505.2,334.8,-0.8,1.8,2471.172,13.29,0.036,240.6
2022-11-21T06:34:02,42.805,6.029,-0.039,-0.003,0.028,99.0,99.0,99.0,13.3,1505.2,331.6,-0.8,1.8,2471.181,13.29,0.039,265.6
2022-11-21T06:37:03,42.805,6.029,-0.051,-0.021,-0.013,98.0,100.0,99.0,13.4,1505.2,328.7,-0.8,1.8,2471.156,13.29,0.055,247.6
2022-11-21T06:40:03,42.805,6.029,0.0,-0.041,-0.031,99.0,99.0,99.0,13.4,1505.2,326.8,-0.8,1.8,2471.178,13.29,0.041,180.0
2022-11-21T06:43:03,42.805,6.029,-0.001,-0.03,0.007,98.0,99.0,99.0,13.3,1505.2,322.8,-0.8,1.8,2471.163,13.29,0.03,181.9
2022-11-21T06:46:03,42.805,6.029,-0.007,-0.045,-0.032,99.0,99.0,99.0,13.4,1505.2,326.3,-0.7,1.8,2471.159,13.29,0.045,188.8
2022-11-21T06:49:02,42.805,6.029,-0.001,-0.032,-0.015,99.0,99.0,99.0,13.3,1505.2,322.0,-0.7,1.8,2471.171,13.29,0.032,181.8
2022-11-21T06:52:03,42.805,6.029,0.012,-0.007,0.033,99.0,99.0,99.0,13.4,1505.2,324.4,-0.8,1.8,2471.171,13.29,0.013,120.3
2022-11-21T06:55:03,42.805,6.029,0.005,-0.04,0.013,99.0,99.0,99.0,13.4,1505.2,329.9,-0.8,1.8,2471.135,13.29,0.04,172.9
2022-11-21T06:58:03,42.805,6.029,-0.019,0.0,0.042,98.0,100.0,99.0,13.4,1505.2,334.1,-0.7,1.8,2471.115,13.29,0.019,270.0
2022-11-21T07:04:03,42.805,6.029,0.024,-0.037,0.006,99.0,101.0,99.0,13.3,1505.2,329.4,-0.7,1.8,2471.183,13.28,0.044,147.0
2022-11-21T07:07:03,42.805,6.029,0.013,-0.023,0.017,98.0,101.0,99.0,13.4,1505.2,329.9,-0.7,1.8,2471.228,13.28,0.026,150.5
2022-11-21T07:10:03,42.805,6.029,-0.043,-0.012,-0.008,99.0,100.0,99.0,13.4,1505.2,318.3,-0.8,1.9,2471.185,13.28,0.044,254.4
2022-11-21T07:13:03,42.805,6.029,-0.015,-0.019,0.02,99.0,100.0,99.0,13.3,1505.2,329.4,-0.7,1.8,2471.18,13.29,0.024,218.3
2022-11-21T07:16:03,42.805,6.029,0.008,-0.035,-0.021,100.0,100.0,99.0,13.3,1505.2,322.1,-0.8,1.8,2471.192,13.29,0.035,167.1
2022-11-21T07:19:03,42.805,6.029,0.003,0.012,0.071,98.0,100.0,99.0,13.4,1505.2,327.4,-0.7,1.8,2471.14,13.29,0.012,14.0
2022-11-21T07:22:03,42.805,6.029,-0.004,-0.021,0.0,98.0,100.0,99.0,13.3,1505.2,323.6,-0.7,1.8,2471.164,13.29,0.021,190.8
2022-11-21T07:25:03,42.805,6.029,0.0,-0.02,0.029,99.0,100.0,99.0,13.4,1505.2,329.6,-0.8,1.8,2471.156,13.29,0.02,180.0
2022-11-21T07:28:03,42.805,6.029,-0.012,-0.024,0.002,98.0,100.0,99.0,13.3,1505.2,319.6,-0.8,1.8,2471.155,13.29,0.026,206.6
2022-11-21T07:31:03,42.805,6.029,0.009,-0.027,-0.004,99.0,100.0,99.0,13.4,1505.2,327.1,-0.8,1.8,2471.128,13.29,0.028,161.6
2022-11-21T07:34:03,42.805,6.029,0.011,-0.018,0.015,100.0,99.0,99.0,13.4,1505.2,328.7,-0.8,1.8,2471.129,13.29,0.021,148.6
2022-11-21T07:37:03,42.805,6.029,0.005,-0.038,0.014,98.0,100.0,100.0,13.4,1505.2,329.6,-0.7,1.8,2471.134,13.29,0.038,172.5
2022-11-21T07:40:03,42.805,6.029,-0.038,-0.018,0.009,101.0,101.0,98.0,13.4,1505.2,329.7,-0.7,1.8,2471.134,13.29,0.042,244.7
2022-11-21T07:43:03,42.805,6.029,-0.025,-0.007,0.023,99.0,98.0,99.0,13.4,1505.2,319.8,-0.8,1.8,2471.118,13.29,0.025,254.4
2022-11-21T07:46:03,42.805,6.029,-0.015,0.018,0.055,98.0,98.0,100.0,13.4,1505.2,330.0,-0.8,1.9,2471.148,13.29,0.023,320.2
2022-11-21T07:49:03,42.805,6.029,0.014,-0.012,0.039,99.0,100.0,99.0,13.4,1505.2,327.0,-0.7,1.8,2471.156,13.29,0.018,130.6
2022-11-21T07:52:03,42.805,6.029,-0.042,-0.028,-0.017,99.0,100.0,99.0,13.4,1505.2,327.4,-0.8,1.8,2471.127,13.29,0.05,236.3
2022-11-21T07:55:03,42.805,6.029,0.015,-0.036,-0.016,98.0,99.0,99.0,13.4,1505.2,328.0,-0.7,1.8,2471.106,13.29,0.039,157.4
2022-11-21T07:58:03,42.805,6.029,0.044,-0.038,0.016,101.0,97.0,98.0,13.4,1505.2,327.3,-0.8,1.8,2471.15,13.29,0.058,130.8
2022-11-21T08:04:03,42.805,6.029,0.009,-0.018,0.004,99.0,100.0,99.0,13.4,1505.2,321.9,-0.7,1.8,2471.213,13.28,0.02,153.4
2022-11-21T08:07:03,42.805,6.029,0.016,-0.019,0.037,97.0,100.0,99.0,13.4,1505.2,332.7,-0.8,1.8,2471.141,13.29,0.024,139.9
2022-11-21T08:10:03,42.805,6.029,-0.033,-0.016,-0.009,99.0,100.0,99.0,13.4,1505.2,320.8,-0.8,1.8,2471.212,13.29,0.036,244.1
2022-11-21T08:13:03,42.805,6.029,0.033,-0.007,0.045,99.0,100.0,98.0,13.3,1505.2,320.8,-0.8,1.8,2471.197,13.29,0.033,102.0
2022-11-21T08:16:03,42.805,6.029,-0.055,-0.013,-0.024,99.0,98.0,99.0,13.3,1505.2,334.8,-0.8,1.8,2471.148,13.29,0.056,256.7
2022-11-21T08:19:03,42.805,6.029,-0.025,-0.002,0.015,98.0,100.0,99.0,13.4,1505.2,326.9,-0.8,1.8,2471.152,13.29,0.025,265.4
2022-11-21T08:22:03,42.805,6.029,0.029,0.004,0.074,99.0,99.0,99.0,13.3,1505.2,328.2,-0.8,1.8,2471.135,13.29,0.029,82.2
2022-11-21T08:25:03,42.805,6.029,-0.019,-0.022,-0.001,98.0,101.0,100.0,13.3,1505.2,336.9,-0.8,1.8,2471.127,13.29,0.029,220.8
2022-11-21T08:28:03,42.805,6.029,0.022,-0.055,-0.013,97.0,101.0,99.0,13.4,1505.2,329.3,-0.7,1.8,2471.128,13.29,0.059,158.2
2022-11-21T08:31:03,42.805,6.029,-0.025,-0.015,0.001,98.0,100.0,99.0,13.3,1505.2,329.2,-0.8,1.8,2471.143,13.29,0.029,239.0
2022-11-21T08:34:03,42.805,6.029,-0.028,-0.034,-0.008,99.0,100.0,99.0,13.4,1505.2,318.6,-0.8,1.8,2471.166,13.29,0.044,219.5
2022-11-21T08:37:03,42.805,6.029,0.004,-0.036,0.012,99.0,99.0,99.0,13.4,1505.2,317.9,-0.7,1.8,2471.149,13.29,0.036,173.7
2022-11-21T08:40:03,42.805,6.029,-0.008,-0.036,-0.012,99.0,98.0,100.0,13.4,1505.2,320.8,-0.8,1.8,2471.099,13.29,0.036,192.5
2022-11-21T08:43:03,42.805,6.029,0.011,-0.042,-0.018,100.0,100.0,99.0,13.3,1505.2,332.8,-0.8,1.8,2471.144,13.29,0.043,165.3
2022-11-21T08:46:03,42.805,6.029,0.005,-0.032,0.001,98.0,99.0,100.0,13.3,1505.2,325.0,-0.8,1.8,2471.137,13.29,0.032,171.1
2022-11-21T08:49:02,42.805,6.029,0.007,0.0,0.029,97.0,100.0,99.0,13.3,1505.2,320.8,-0.8,1.8,2471.095,13.29,0.007,90.0
2022-11-21T08:52:03,42.805,6.029,0.017,-0.044,-0.021,99.0,99.0,99.0,13.4,1505.2,326.5,-0.7,1.8,2471.08,13.29,0.047,158.9
2022-11-21T08:55:03,42.805,6.029,-0.028,0.006,0.017,98.0,101.0,99.0,13.3,1505.2,334.7,-0.8,1.8,2471.076,13.29,0.028,282.1
2022-11-21T08:58:03,42.805,6.029,0.026,-0.052,-0.017,99.0,101.0,98.0,13.4,1505.2,333.4,-0.8,1.8,2471.1,13.29,0.058,153.4
2022-11-21T09:04:02,42.805,6.029,-0.01,-0.007,0.028,99.0,100.0,99.0,13.3,1505.2,327.8,-0.8,1.8,2471.118,13.28,0.012,235.0
2022-11-21T09:07:03,42.805,6.029,-0.033,-0.011,0.029,99.0,101.0,99.0,13.4,1505.2,318.7,-0.8,1.8,2471.119,13.28,0.034,251.6
2022-11-21T09:10:03,42.805,6.029,0.0,-0.03,0.0,99.0,99.0,99.0,13.4,1505.2,331.8,-0.8,1.8,2471.108,13.28,0.03,180.0
2022-11-21T09:13:03,42.805,6.029,0.0,-0.032,-0.016,97.0,100.0,100.0,13.3,1505.2,321.5,-0.8,1.8,2471.121,13.29,0.032,180.0
2022-11-21T09:16:03,42.805,6.029,-0.034,-0.012,0.028,99.0,98.0,99.0,13.4,1505.2,319.9,-0.8,1.8,2471.069,13.29,0.036,250.6
2022-11-21T09:19:03,42.805,6.029,-0.003,-0.039,-0.014,99.0,101.0,99.0,13.4,1505.2,324.4,-0.7,1.8,2471.102,13.29,0.039,184.4
2022-11-21T09:22:03,42.805,6.029,-0.008,-0.01,0.006,100.0,100.0,98.0,13.4,1505.2,331.5,-0.8,1.8,2471.066,13.29,0.012,218.7
2022-11-21T09:25:03,42.805,6.029,-0.006,-0.01,0.002,99.0,100.0,99.0,13.4,1505.2,319.9,-0.8,1.8,2471.109,13.29,0.011,211.0
2022-11-21T09:28:03,42.805,6.029,0.012,-0.013,0.03,99.0,99.0,100.0,13.3,1505.2,327.5,-0.8,1.8,2471.086,13.29,0.017,137.3
2022-11-21T09:31:03,42.805,6.029,-0.007,-0.01,0.019,100.0,100.0,99.0,13.3,1505.2,323.5,-0.8,1.8,2471.058,13.29,0.012,215.0
2022-11-21T09:34:03,42.805,6.029,0.016,-0.035,0.016,99.0,100.0,98.0,13.3,1505.2,324.8,-0.7,1.8,2471.067,13.29,0.038,155.4
2022-11-21T09:37:03,42.805,6.029,-0.01,0.005,0.032,99.0,99.0,99.0,13.3,1505.2,324.8,-0.8,1.8,2471.087,13.29,0.011,296.6
2022-11-21T09:40:03,42.805,6.029,-0.004,0.004,0.045,101.0,103.0,98.0,13.3,1505.2,323.2,-0.8,1.9,2471.097,13.29,0.005,315.0
2022-11-21T09:43:03,42.805,6.029,0.006,-0.012,0.034,100.0,98.0,99.0,13.4,1505.2,323.5,-0.8,1.8,2471.031,13.29,0.013,153.4
2022-11-21T09:46:03,42.805,6.029,0.004,-0.01,0.026,98.0,100.0,99.0,13.4,1505.2,329.9,-0.8,1.8,2471.052,13.29,0.01,158.2
2022-11-21T09:49:03,42.805,6.029,-0.019,-0.03,-0.018,99.0,99.0,99.0,13.4,1505.2,329.1,-0.8,1.8,2471.042,13.29,0.035,212.3
2022-11-21T09:52:03,42.805,6.029,0.004,-0.023,0.017,100.0,99.0,98.0,13.3,1505.2,325.3,-0.7,1.8,2471.021,13.29,0.023,170.1
2022-11-21T09:55:03,42.805,6.029,0.021,-0.021,0.018,98.0,100.0,99.0,13.3,1505.2,331.9,-0.8,1.8,2471.067,13.29,0.029,135.0
2022-11-21T09:58:03,42.805,6.029,0.001,-0.031,-0.006,99.0,100.0,98.0,13.4,1505.2,323.2,-0.8,1.9,2471.019,13.29,0.031,178.2
2022-11-21T10:04:03,42.805,6.029,0.01,-0.017,0.003,98.0,100.0,99.0,13.4,1505.2,327.1,-0.7,1.8,2471.036,13.28,0.019,149.5
2022-11-21T10:07:03,42.805,6.029,0.005,-0.003,0.038,99.0,98.0,99.0,13.4,1505.2,330.7,-0.7,1.8,2471.064,13.28,0.005,121.0
2022-11-21T10:10:03,42.805,6.029,0.007,-0.038,-0.037,100.0,99.0,99.0,13.4,1505.2,316.3,-0.8,1.8,2471.057,13.28,0.038,169.6
2022-11-21T10:13:03,42.805,6.029,0.025,-0.027,0.034,98.0,101.0,99.0,13.4,1505.2,322.5,-0.7,1.8,2471.033,13.28,0.036,137.2
2022-11-21T10:16:03,42.805,6.029,0.001,-0.005,0.034,99.0,100.0,99.0,13.4,1505.2,320.5,-0.7,1.9,2471.081,13.28,0.005,168.7
2022-11-21T10:19:03,42.805,6.029,-0.001,-0.037,-0.026,99.0,100.0,98.0,13.4,1505.2,317.7,-0.8,1.8,2471.028,13.29,0.037,181.5
2022-11-21T10:22:03,42.805,6.029,0.036,-0.014,0.025,99.0,99.0,99.0,13.4,1505.2,327.8,-0.8,1.8,2471.034,13.29,0.038,111.2
2022-11-21T10:25:03,42.805,6.029,0.006,-0.032,-0.009,100.0,100.0,97.0,13.3,1505.2,330.2,-0.8,1.8,2470.99,13.29,0.032,169.4
2022-11-21T10:28:03,42.805,6.029,0.012,-0.023,-0.014,100.0,99.0,100.0,13.4,1505.2,326.5,-0.8,1.8,2471.022,13.29,0.025,152.4
2022-11-21T10:31:03,42.805,6.029,-0.007,-0.021,-0.015,98.0,100.0,98.0,13.4,1505.2,328.7,-0.8,1.8,2471.043,13.29,0.022,198.4
2022-11-21T10:34:03,42.805,6.029,0.021,-0.038,-0.02,99.0,100.0,99.0,13.3,1505.2,328.9,-0.8,1.8,2470.999,13.29,0.043,151.1
2022-11-21T10:37:03,42.805,6.029,-0.007,-0.015,0.011,99.0,100.0,99.0,13.4,1505.2,324.6,-0.7,1.8,2470.996,13.29,0.016,205.0
2022-11-21T10:40:03,42.805,6.029,0.071,-0.036,0.026,99.0,99.0,99.0,13.3,1505.2,321.2,-0.7,1.8,2471.019,13.29,0.079,116.9
2022-11-21T10:43:03,42.805,6.029,0.004,-0.02,0.018,99.0,100.0,99.0,13.4,1505.2,321.7,-0.8,1.8,2471.053,13.29,0.02,168.7
2022-11-21T10:46:03,42.805,6.029,0.021,-0.016,0.035,98.0,100.0,99.0,13.3,1505.2,330.6,-0.8,1.8,2471.014,13.29,0.026,127.3
2022-11-21T10:49:03,42.805,6.029,0.023,-0.052,0.005,99.0,99.0,99.0,13.3,1505.2,332.1,-0.7,1.8,2471.016,13.29,0.056,156.1
2022-11-21T10:52:03,42.805,6.029,-0.002,-0.03,-0.008,99.0,100.0,99.0,13.4,1505.2,330.6,-0.8,1.8,2471.037,13.29,0.03,183.8
2022-11-21T10:55:03,42.805,6.029,0.002,-0.008,0.039,98.0,98.0,100.0,13.3,1505.2,323.5,-0.8,1.8,2470.982,13.29,0.008,166.0
2022-11-21T10:58:03,42.805,6.029,0.02,-0.024,-0.017,99.0,100.0,99.0,13.3,1505.2,319.8,-0.8,1.8,2471.069,13.29,0.031,140.2
2022-11-21T11:04:03,42.805,6.029,0.009,-0.013,0.048,99.0,100.0,99.0,13.4,1505.2,332.4,-0.8,1.8,2471.109,13.28,0.015,145.3
2022-11-21T11:07:03,42.805,6.029,0.017,-0.009,0.028,99.0,100.0,99.0,13.3,1505.2,325.1,-0.8,1.8,2471.095,13.28,0.019,117.9